Arbuckle, West Virginia
Current Conditions -  °F | °C
As of 2:55 PM on Sunday 21 Dec 2014 (Local Time) from K3I2 Reporting Station
Clear Clear  
Wind Chill: 43°   Ceiling: Unl
Heat Index: 43°   Visibility: 10mi
Dew Point: 28°   Wind: 0mph
Humidity: 57%   Direction: NA
Pressure: 30.23"   Gusts: NA
Location:  38.7463°N, 81.8897°W
Report Text: K3I2 211955Z AUTO 00000KT 10SM CLR 06/M02 A3023 RMK AO2
Loading
Personal Weather Stations






























Interactive Weather Map New forecast layout! Learn more

10-Day Weather Forecast

Advertisements
Track Severe Weather on mobile